Weather in Konstantinovskiy

Russia / Yaroslavl Oblast     57°49′48″N   39°35′25″E
temp.,
°C
wind,
m/s
gust,
m/s
humid.,
%
clouds,
%
prec.,
mm/h
press.,
hPa
HPBL,
m
30 november, tue
tue3000:00+2e61398100 0.0 993485
03:00+2e71598100 0.1 986574
06:00+2e81697100 4.4 977735
09:00+4e81697100 9.7 969786
12:00+5s81790100 1.1 9691322
15:00+2s81584100 1.3 9701130
18:000s71389100 0.2 9701080
21:00−2s51193100 0.3 969744
1 december, wed
wed100:00−1wsw61395100 1.1 9721179
03:00−3sw71390100 1.8 977892
06:00−4wsw71492100 1.1 981991
09:00−4wsw61185100 1.4 983863
12:00−5wsw5993100 1.3 985771
15:00−5wsw5993100 2.4 986710
18:00−6wsw41094100 1.1 987682
21:00−6w51094100 2.6 989615
2 december, thu
thu200:00−6w51091100 0.7 991622
03:00−8w51190100 0.8 994525
06:00−8w41091100 0.1 996540
09:00−10sw379580 0.1 998252
12:00−8sw2588100 0.0 999273
15:00−6s3692100 0.1 998346
18:00−6sse41094100 0.3 997450
21:00−5sse41094100 0.9 996538
3 december, fri
fri300:00−4sse3896100 0.9 995347
03:00−2s31196100 2.3 995414
06:00+1sw51198100 0.4 995780
09:000sw5119085 0.5 998745
12:000sw41090100 0.1 1000826
15:00−1sw4887100 0.1 1002425
18:00−2s3892100 0.0 1002282
21:00−2sse2597100 0.4 1001203
4 december, sat
sat400:00−2ene2498100 1.9 999206
03:00−2nnw2498100 3.8 997170
06:00−2w51095100 1.0 997601
09:00−5w5138982 1.1 1000605
12:00−6wsw51289100 0.0 1003651
15:00−7wsw51289100 0.0 1006661
18:00−7wsw51289100 0.0 1008632
21:00−7wsw51289100 0.1 1010624